TIME,DELAY(SENSOR),PRES,T(CTD),SAL,OXYGEN,RAWTEMP,T(OPTODE),TCPHASE,FLUOR,BETA(BETA700),BETA(BETA412),BETA(BETA440),CDOM,C(CSC),ED(ED412.40),ED(ED444.00),ED(ED489.70),ED(ED554.30),LU(LU411.80),LU(LU443.40),LU(LU489.60),LU(LU554.10),COMP,TILTX,TILTX(TILTY),CHECK
1371073441,5806,497.1300048828125000,6.2729997634887695,34.1477012634277340,62.3714904785156250,610.2783203125000000,6.2517337799072270,51.2340583801269500,51,102,84,79,79,14830,2147748644,2147427328,2148007926,2147872146,2147629257,2147068233,2148246701,2147198098,3184,4,13,65059
1371073558,5808,486.7600097656250000,6.3667001724243160,34.1285018920898440,69.2278823852539000,607.3483276367188000,6.3466300964355470,50.3199386596679700,52,103,86,80,79,14830,2147748297,2147426880,2148009380,2147873673,2147628452,2147069595,2148246528,2147199497,2159,4,13,8920
1371073697,5812,475.1099853515625000,6.6434001922607420,34.1315994262695300,77.5449829101562500,598.8804931640625000,6.6204237937927250,49.1853485107421900,51,104,83,80,78,14828,2147745490,2147425280,2148006747,2147873764,2147629193,2147071707,2148241974,2147198189,1404,4,13,18821
1371073826,5807,465.0199890136719000,6.7747001647949220,34.1240005493164060,83.3750762939453100,594.5433959960938000,6.7603931427001950,48.4362411499023440,50,103,85,80,79,14828,2147745709,2147425536,2148004388,2147874404,2147625371,2147075254,2148239853,2147200566,776,4,13,42920
1371073989,5806,453.5100097656250000,6.7878999710083010,34.1110000610351560,87.7356872558593800,594.3593750000000000,6.7663288116455080,47.9390182495117200,51,104,88,79,78,14830,2147745801,2147427657,2148009005,2147875392,2147628790,2147082368,2148239058,2147200822,2426,4,13,2297
1371074173,5803,439.6900024414062500,6.9882998466491700,34.1035995483398440,95.4891586303711000,587.8903808593750000,6.9747600555419920,46.9869689941406250,52,103,86,80,77,14830,2147745526,2147423990,2148003346,2147874267,2147627556,2147080091,2148238518,2147200667,2067,4,13,20945
1371074300,5803,428.2699890136719000,7.1518998146057130,34.1001014709472660,98.9143829345703100,582.5637817382812000,7.1460909843444820,46.5362091064453100,51,103,90,79,76,14829,2147742912,2147425737,2148006034,2147877092,2147623762,2147079954,2148238848,2147203849,1261,4,13,9452
1371074417,5806,417.6199951171875000,7.3673000335693360,34.1001014709472660,105.4481964111328100,576.8682250976562000,7.3290081024169920,45.7659492492675800,51,105,87,80,77,14824,2147745654,2147424978,2148005888,2147875181,2147627721,2147072292,2148235922,2147196544,604,4,13,36780
1371074544,5807,405.4400024414062500,7.7126998901367190,34.0993003845214840,113.7582015991211000,565.4766845703125000,7.6939868927001950,44.7435798645019500,51,106,89,79,75,14827,2147743570,2147427382,2148004891,2147871625,2147623570,2147077878,2148237120,2147196269,3566,4,13,43256
1371074659,5806,394.1300048828125000,7.9040999412536620,34.0999984741210940,122.2992019653320300,559.4771118164062000,7.8857588768005370,43.8225517272949200,51,104,88,81,76,14826,2147740854,2147424192,2148005549,2147873453,2147621787,2147081316,2148235373,2147202221,2676,4,13,32689
1371074776,5809,382.5199890136719000,8.1448001861572270,34.0993003845214840,129.9427947998047000,551.3651733398438000,8.1445636749267580,42.9816093444824200,50,105,87,80,74,14826,2147739035,2147426596,2148006518,2147876781,2147622893,2147082066,2148227373,2147200512,2784,4,13,33292
1371074879,5809,372.7500000000000000,8.3423995971679690,34.0929985046386700,140.0005035400390600,545.3366699218750000,8.3365478515625000,41.9931297302246100,50,105,88,80,75,14827,2147742884,2147425654,2148006217,2147871881,2147619117,2147088320,2148232192,2147200493,1768,3,13,64718
1371074994,5809,362.8900146484375000,8.6104001998901370,34.0978012084960940,148.2911071777343800,537.2564697265625000,8.5934009552001950,41.1585807800293000,50,105,88,80,73,14826,2147739501,2147426541,2148003318,2147874852,2147619757,2147089874,2148229184,2147201389,1200,4,13,32395
1371075135,5809,351.1300048828125000,8.8471002578735350,34.1001014709472660,155.6717987060547000,529.5629882812500000,8.8374862670898440,40.4324188232421900,50,107,88,80,73,14826,2147740672,2147426523,2148005266,2147875675,2147616896,2147089865,2148228169,2147202669,1417,4,13,5665
1371075262,5806,341.0000000000000000,9.1031999588012700,34.1026992797851560,165.5531005859375000,521.5742797851562000,9.0904502868652340,39.5367584228515600,50,108,87,79,73,14821,2147739465,2147426596,2148001856,2147876370,2147617014,2147093796,2148229778,2147201938,1258,4,13,31135
1371075403,5810,330.1099853515625000,9.3066997528076170,34.1038017272949200,172.1394042968750000,514.7589111328125000,9.3058872222900390,38.9361190795898440,49,106,90,80,72,14824,2147737965,2147426907,2148001106,2147872969,2147614866,2147087808,2148219062,2147201828,528,3,14,2838
1371075554,5807,318.5700073242187500,9.6162004470825200,34.1034011840820300,180.0037994384765600,505.4726867675781000,9.5988750457763670,38.2230110168457000,50,107,86,78,73,14826,2147736365,2147424603,2148003401,2147876516,2147613549,2147095680,2148224411,2147201837,3323,4,13,6391
1371075689,5808,307.1799926757812500,10.0195999145507810,34.1160011291503900,187.8121032714843800,492.5745849609375000,10.0048103332519530,37.4763603210449200,50,109,86,80,71,14821,2147733184,2147429705,2148010285,2147874029,2147612077,2147093028,2148223926,2147200914,2729,4,13,319
1371075804,5805,296.0000000000000000,10.2187995910644530,34.1265983581543000,193.6486053466797000,486.0775146484375000,10.2088603973388670,36.9880294799804700,49,108,86,82,71,14822,2147732672,2147427995,2148013202,2147874870,2147610441,2147098304,2148222701,2147203190,2054,3,13,51436
1371075919,5806,284.9200134277344000,10.5038995742797850,34.1344985961914060,197.0910034179687500,476.3630981445312500,10.5134296417236330,36.6076393127441400,50,105,86,81,69,14821,2147730304,2147430838,2148015012,2147875392,2147610660,2147103433,2148228681,2147204745,1220,3,13,46200
1371076036,5810,274.9500122070312500,11.1000003814697270,34.1509017944335940,201.1434020996093800,456.4609985351562500,11.1355800628662110,36.0279006958007800,49,105,88,81,69,14821,2147732342,2147430674,2148019190,2147874651,2147610377,2147101952,2148225654,2147203190,3160,4,13,35418
1371076175,5809,263.6600036621094000,11.7743997573852540,34.1791000366210940,207.9506072998047000,435.3200073242187500,11.7939195632934570,35.2784004211425800,49,109,84,79,68,14820,2147728722,2147433252,2148021074,2147876937,2147605120,2147113398,2148221421,2147204406,3113,4,13,11619
1371076316,5811,253.0099945068359400,12.6761999130249020,34.2247009277343750,212.2498016357422000,407.7065124511719000,12.6503000259399410,34.5919609069824200,48,108,90,80,68,14818,2147727542,2147433325,2148025435,2147874267,2147601810,2147115602,2148218285,2147205549,81,4,13,54126
1371076467,5808,241.9799957275390600,13.1466999053955080,34.2579002380371100,212.0789031982422000,392.2504882812500000,13.1280698776245120,34.3617591857910160,48,106,90,81,68,14814,2147725732,2147436379,2148034797,2147874157,2147596150,2147125357,2148219108,2147205019,1895,3,14,14013
1371076650,5809,228.3699951171875000,13.7124004364013670,34.2947998046875000,212.2911071777343800,372.2962951660156000,13.7434301376342770,34.0436897277832000,49,104,85,81,67,14814,2147722285,2147440548,2148048621,2147874395,2147590628,2147129892,2148223917,2147206363,1942,3,14,51804
1371076789,5809,217.1000061035156200,14.4294996261596680,34.3336982727050800,210.2602996826172000,348.0958862304687500,14.4877901077270500,33.7931518554687500,49,105,87,81,67,14813,2147723803,2147450898,2148078939,2147876306,2147590957,2147141915,2148231305,2147205760,2571,3,14,2756
1371076924,5807,206.1999969482422000,14.6724996566772460,34.3521995544433600,208.8903045654297000,340.9953002929687500,14.7058401107788090,33.7654113769531250,49,106,84,81,66,14812,2147721142,2147467410,2148119497,2147873581,2147589266,2147153133,2148252873,2147211684,1180,3,14,2018
1371077015,5807,197.0299987792968800,15.6192998886108400,34.4757003784179700,211.4987030029297000,312.4838867187500000,15.5800104141235350,33.1961097717285160,50,107,91,81,66,14803,2147721773,2147481060,2148156397,2147871872,2147584722,2147163611,2148265728,2147213641,955,3,14,180
1371077070,5807,191.1900024414062500,15.7955999374389650,34.4977989196777340,212.2691040039062500,304.3883972167969000,15.8278799057006840,33.0348587036132800,50,107,89,81,67,14808,2147727040,2147491876,2148188681,2147873581,2147582582,2147178075,2148278884,2147215085,399,3,13,27992
1371077125,5809,185.3200073242187500,15.9802999496459960,34.5222015380859400,213.1898956298828000,299.3883056640625000,15.9809103012084960,32.9113502502441400,50,107,87,80,66,14799,2147728100,2147510226,2148230363,2147875739,2147586660,2147189065,2148302720,2147214208,3302,3,15,57695
1371077180,5810,179.3200073242187500,16.3335990905761720,34.5642013549804700,212.8880004882812500,285.2544860839844000,16.4132404327392580,32.7244415283203100,52,108,88,81,66,14801,2147734372,2147533668,2148285238,2147874642,2147584237,2147207899,2148324973,2147216356,2606,2,14,19986
1371077256,5806,171.4400024414062500,16.8801002502441400,34.6416015625000000,216.4125976562500000,269.5152893066406000,16.8943500518798830,32.3073806762695300,53,111,87,81,64,14800,2147742747,2147572086,2148379602,2147877348,2147589668,2147229814,2148370889,2147224950,1613,3,14,7813
1371077311,5807,166.0500030517578000,17.1312999725341800,34.6786994934082000,217.9756011962890600,261.9349975585937500,17.1259708404541000,32.1167411804199200,55,108,90,82,65,14797,2147750043,2147608557,2148460598,2147878857,2147590774,2147255707,2148404150,2147227529,1944,3,14,10899
1371077366,5811,160.7599945068359400,17.5902004241943360,34.7382011413574200,217.6000976562500000,244.6358947753906200,17.6543807983398440,31.8943099975585940,58,115,89,83,63,14793,2147760466,2147645769,2148539894,2147876891,2147594852,2147277522,2148438262,2147224868,2275,3,14,15593
1371077421,5808,155.8500061035156200,18.1476001739501950,34.8147010803222660,217.9949035644531200,228.6259002685547000,18.1432991027832030,31.6513805389404300,66,115,88,81,64,14783,2147773220,2147685760,2148627026,2147876022,2147599908,2147304640,2148481316,2147230144,2073,2,15,23050
1371077476,5811,150.6699981689453000,18.3880004882812500,34.8518981933593750,218.6354980468750000,221.0886993408203000,18.3734703063964840,31.5134506225585940,76,115,87,82,63,14787,2147798720,2147742829,2148754349,2147878921,2147606701,2147337536,2148533293,2147233920,582,1,12,9086
1371077531,5809,146.3000030517578000,18.5083999633789060,34.8731994628906250,218.8291931152343800,214.2640075683593800,18.5818996429443360,31.4098491668701170,76,121,89,82,63,14782,2147821284,2147816073,2148903250,2147879853,2147615195,2147376192,2148595099,2147241563,461,3,14,56817
1371077609,5808,140.6799926757812500,18.9256992340087900,34.9375991821289060,219.8946990966797000,203.5742034912109400,18.9083995819091800,31.2083606719970700,83,120,88,82,63,14782,2147863451,2147920109,2149110198,2147879177,2147631808,2147434468,2148686464,2147248027,193,2,14,43355
1371077664,5808,137.4199981689453000,18.9715003967285160,34.9472999572753900,220.7622070312500000,201.6929931640625000,18.9658603668212900,31.1378993988037100,84,121,87,82,62,14782,2147900571,2147993792,2149258569,2147881078,2147644059,2147473499,2148748269,2147252836,3292,2,15,52913
1371077743,5809,133.1000061035156200,19.3904991149902340,35.0012016296386700,220.5242004394531200,188.2608947753906200,19.3762607574462900,30.9685401916503900,95,126,87,82,62,14771,2147956333,2148107355,2149460498,2147885028,2147665490,2147532480,2148824128,2147260525,2923,3,15,46577
1371077822,5807,129.4400024414062500,19.6408004760742200,35.0209007263183600,221.5393066406250000,179.9893951416015600,19.6290702819824220,30.8050498962402340,104,126,87,82,63,14755,2148020690,2148222848,2149672384,2147888576,2147690066,2147583762,2148894985,2147263113,107,3,15,58491
1371077915,5812,125.4300003051757800,19.8288002014160160,35.0364990234375000,223.0787048339843800,173.7366027832031200,19.8202400207519530,30.6430397033691400,111,123,89,81,63,14744,2148125979,2148434349,2150036425,2147894107,2147726473,2147668909,2149030564,2147273801,3453,2,15,12403
1371077994,5806,121.7900009155273400,20.0436000823974600,35.0539016723632800,224.0048980712890600,166.6667938232422000,20.0364608764648440,30.5019798278808600,123,124,90,84,62,14731,2148269494,2148693851,2150501659,2147900672,2147773376,2147768512,2149188845,2147290130,2618,2,15,21104
1371078085,5810,117.1999969482421900,20.1480998992919920,35.0654983520507800,225.3981933593750000,162.9351959228515600,20.1506099700927730,30.3825092315673830,128,128,90,83,63,14728,2148530468,2149157220,2151288868,2147917376,2147860141,2147958418,2149477888,2147314249,1908,2,15,619
1371078152,5809,113.4300003051757800,20.3493995666503900,35.0816993713378900,226.0473937988281200,155.2825927734375000,20.3847904205322270,30.2489109039306640,139,131,91,84,61,14705,2148859958,2149747757,2152270061,2147934061,2147972525,2148195355,2149837184,2147345554,1230,2,15,54266
1371078233,5808,109.0800018310546900,20.5576000213623050,35.0983009338378900,229.0263977050781200,150.0807037353515600,20.5440406799316400,30.0338993072509770,155,136,93,85,62,14689,2149387995,2150645238,2153708845,2147968210,2148136320,2148534482,2150334226,2147390509,955,2,15,57491
1371078300,5808,105.6600036621093800,20.6145992279052730,35.1029014587402340,230.4076995849609400,147.4812011718750000,20.6236495971679700,29.9324893951416000,167,131,89,84,62,14681,2149890752,2151414884,2154825334,2147997833,2148293174,2148802678,2150705097,2147427163,577,2,15,63899
1371078379,5806,101.8000030517578100,20.7670001983642580,35.1152992248535160,232.6773986816406200,143.2422027587890600,20.7534809112548830,29.7676792144775400,164,134,93,83,61,14656,2150617280,2152486052,2156294729,2148040923,2148514450,2149171675,2151195419,2147475547,3318,2,15,24083
1371078446,5809,99.0000000000000000,20.8693008422851560,35.1226997375488300,233.8414001464843800,139.9291992187500000,20.8549804687500000,29.6691207885742200,170,132,93,84,61,14654,2151411428,2153651117,2157874057,2148083337,2148773421,2149593417,2151729472,2147533138,145,2,15,20099
1371078501,5809,97.0899963378906200,21.0704994201660160,35.1369018554687500,234.8058013916015600,133.7321929931640600,21.0449104309082030,29.5431194305419920,164,127,92,83,61,14668,2152152201,2154716644,2159296987,2148122733,2149015899,2149996498,2152235236,2147584850,3333,2,15,1222
1371078570,5806,95.4599990844726600,21.2094001770019530,35.1441993713378900,236.5155944824218800,129.3845062255859400,21.1782093048095700,29.4067401885986330,130,125,90,84,60,14684,2153159771,2156194486,2161298358,2148187044,2149371136,2150573211,2152988068,2147659300,3241,2,15,41007
1371078781,5811,93.6900024414062500,21.3724994659423830,35.1609992980957000,239.5899963378906200,123.1389007568359400,21.3697891235351560,29.1836490631103500,112,119,88,82,62,14697,2156089435,2160324333,2166719094,2148347227,2150486811,2152355547,2155174491,2147864841,2650,2,16,6653
1371078903,5810,90.6900024414062500,21.4372997283935550,35.1712989807128900,240.4443054199218800,121.2141036987304700,21.4288597106933600,29.1198692321777340,109,119,90,83,60,14695,2157928137,2162366793,2168611254,2148437842,2151237714,2153320722,2156055579,2147961682,2490,2,16,30584
1371078958,5807,88.1900024414062500,21.5998992919921880,35.1846008300781250,240.1959991455078000,115.2795028686523400,21.6110305786132800,29.0554695129394530,102,119,87,83,60,14696,2159095222,2163547428,2169582628,2148507757,2151741202,2153920420,2156570614,2148026962,2356,2,16,16312
1371079013,5809,85.4800033569336000,21.7950992584228500,35.1974983215332000,240.7319030761718800,110.4251022338867200,21.7601299285888670,28.9689598083496100,93,119,89,82,59,14704,2161849261,2166993398,2173658770,2148709001,2152915904,2155585270,2158381284,2148222829,2502,2,15,33338
1371079068,5808,82.9300003051757800,21.8792991638183600,35.2057991027832000,241.7068939208984400,106.9134979248046900,21.8680191040039060,28.8799991607666000,88,121,90,83,60,14705,2163265234,2168417773,2174914249,2148828352,2153606509,2156389321,2159037961,2148304301,2445,1,15,762
1371079123,5809,80.4300003051757800,21.9002990722656250,35.2081985473632800,242.7624053955078000,105.9613037109375000,21.8972797393798830,28.8202209472656250,88,120,89,82,60,14707,2165147044,2170410340,2176838976,2148974464,2154520329,2157498660,2160024722,2148418550,2004,1,16,30952
1371079180,5806,77.8799972534179700,21.9407997131347660,35.2114982604980500,243.3706970214843800,104.5990982055664000,21.9391498565673830,28.7756595611572270,89,121,88,83,61,14704,2167235291,2172523337,2178779657,2149149988,2155505993,2158624996,2160942025,2148541330,1438,2,15,41251
1371079235,5807,75.6100006103515600,21.9775009155273440,35.2132987976074200,243.8831939697265600,103.3535003662109400,21.9774494171142580,28.7367191314697270,88,122,90,83,59,14705,2168322422,2173304466,2179072018,2149226779,2156145773,2159266688,2161342125,2148589686,1069,2,15,23777
1371079290,5808,73.5400009155273400,22.0270004272460940,35.2149009704589840,244.2138061523437500,101.9133987426757800,22.0217208862304700,28.7039604187011720,85,120,89,83,59,14703,2170001088,2174831734,2180300178,2149377517,2157058980,2160220882,2162096557,2148686811,715,2,15,59734
1371079345,5807,71.8300018310546900,22.1338005065917970,35.2201004028320300,244.4156951904297000,98.8101882934570300,22.1171493530273440,28.6556892395019530,82,122,89,84,58,14705,2171805988,2176531821,2181756242,2149532726,2158026112,2161269897,2162910738,2148788553,430,2,15,15946
1371079412,5808,70.4400024414062500,22.2817001342773440,35.2307014465332000,244.6138000488281200,93.9462127685546900,22.2667903900146500,28.5855998992919920,82,123,88,82,59,14699,2174573723,2179447981,2184677165,2149739858,2159465764,2162961709,2164399387,2148957238,3527,2,16,54809
1371079550,5809,68.1399993896484400,22.5093002319335940,35.2397003173828100,246.5825042724609400,86.0645294189453100,22.5094604492187500,28.3992290496826170,79,125,91,84,58,14685,2179151808,2183576777,2187875757,2150102336,2162354880,2165842779,2166415286,2149208713,2118,2,16,63340
1371079629,5810,66.4100036621093800,22.6207008361816400,35.2453994750976560,248.1316986083984400,82.7172698974609400,22.6125793457031250,28.2894306182861330,78,124,91,84,58,14675,2174181942,2176835629,2179341714,2149599030,2160553435,2162922898,2162941979,2148814976,1543,3,16,59042
1371079720,5808,64.2799987792968800,22.9501991271972660,35.2812004089355500,248.7248992919922000,72.1387863159179700,22.9387702941894530,28.1315498352050780,75,124,91,85,58,14675,2172338139,2174099209,2175694628,2149459035,2160222272,2162013193,2161602048,2148681142,2074,1,16,27582
1371079811,5807,61.3499984741210940,23.1088008880615230,35.2874984741210940,250.1614074707031200,67.2014465332031200,23.0911693572998050,28.0081996917724600,71,125,93,85,58,14674,2176526582,2178039954,2179307090,2149955044,2163281536,2165002724,2163810834,2148974080,2132,2,15,37315
1371079866,5804,58.5699996948242200,23.1536998748779300,35.2892990112304700,250.9803924560547000,65.5273666381836000,23.1428604125976560,27.9522895812988280,69,126,92,85,59,14665,2180780278,2182073810,2183055698,2150454400,2166297444,2167976365,2166046793,2149267337,2313,2,15,55802
1371079921,5804,55.5600013732910160,23.2562999725341800,35.2958984375000000,251.6448059082031200,62.3858604431152340,23.2399101257324220,27.8851108551025400,69,126,92,85,55,14661,2185688073,2186630043,2187260214,2151160960,2169868690,2171426349,2168605449,2149639981,2571,2,16,14852
1371079976,5810,52.5400009155273440,23.3861999511718750,35.3032989501953100,251.4131011962890600,58.4309005737304700,23.3621292114257800,27.8459091186523440,66,127,93,86,58,14656,2190961938,2191478692,2191709156,2151942738,2173908406,2175273261,2171424064,2150043337,3108,2,16,16232
1371080031,5805,49.8199996948242200,23.5988998413085940,35.3102989196777340,251.7071990966797000,52.0544395446777340,23.5593490600585940,27.7546596527099600,67,126,91,85,58,14652,2196175186,2196348114,2196265755,2152832182,2178195876,2179337508,2174360886,2150494637,443,3,15,58617
1371080088,5809,47.7099990844726560,23.7383995056152340,35.3129997253418000,251.9985961914062500,46.7909698486328100,23.7222805023193360,27.6775093078613280,65,125,91,85,58,14666,2200657700,2200579968,2200257243,2153696566,2182109028,2182972937,2176950107,2150906340,1301,2,16,54066
1371080143,5820,46.2400016784668000,23.8805007934570300,35.3163986206054700,252.1873016357422000,42.4914016723632800,23.8554706573486330,27.6165504455566400,64,125,93,86,55,14656,2203888557,2203575259,2203115611,2154369417,2185153362,2185788214,2178954157,2151218633,1817,1,16,5736
1371080258,5810,44.8499984741210940,24.1618003845214840,35.2993011474609400,252.0641021728515600,34.6841697692871100,24.0975399017334000,27.5259094238281250,62,126,90,84,54,14656,2210645366,2210084635,2209493476,2155523209,2191184256,2191483373,2183072365,2151804882,2322,1,16,60119
1371080588,5807,42.1699981689453100,24.5692996978759770,35.2640991210937500,250.7528991699218800,20.0572204589843750,24.5519008636474600,27.4025306701660160,62,126,94,85,54,14644,2218212928,2216742189,2215406290,2157422948,2202028589,2200426834,2188541138,2152681270,770,1,15,3502
1371080667,5807,40.4599990844726560,24.7038002014160160,35.2565002441406250,249.9550018310547000,15.4674301147460940,24.6947097778320300,27.3803195953369140,60,128,91,88,55,14644,2228721910,2227153472,2225811840,2159868342,2211445449,2209358637,2195200877,2153771529,368,1,16,30177
1371080781,5807,37.9900016784668000,24.8185997009277340,35.2578010559082000,248.9718017578125000,11.5461101531982420,24.8168106079101560,27.3741798400878900,61,126,91,86,53,14637,2240523894,2238411254,2236673691,2163256064,2223738962,2220226633,2202747739,2155172397,36,2,15,24359
1371080848,5807,36.2000007629394500,24.9071006774902340,35.2557983398437500,248.2378997802734400,8.6707229614257810,24.9064006805419920,27.3704109191894530,61,129,90,85,56,14640,2253216704,2250728740,2248731657,2166677686,2236599113,2231802624,2210928365,2156628845,304,2,15,49163
1371080927,5808,34.4700012207031250,25.1450996398925780,35.2672004699707000,246.9033966064453000,2.1223430633544920,25.1105995178222660,27.3478107452392580,60,127,93,86,54,14631,2273858843,2271284516,2269381888,2172559076,2257477558,2251142857,2224975936,2159075766,546,1,16,22650
1371081053,5806,32.3800010681152340,25.6497993469238280,35.2975997924804700,242.5915985107422000,-13.7659196853637700,25.6071090698242200,27.3407993316650400,60,125,93,84,59,14628,2291353225,2288390162,2286372809,2179181156,2278105188,2269324672,2237663753,2161640713,419,2,15,57514
1371081156,5806,30.4400005340576170,25.8194999694824220,35.3098983764648440,239.7487945556640600,-20.2126102447509770,25.8090190887451170,27.3870697021484380,58,121,94,87,53,14640,2313013357,2310510500,2308994422,2187365696,2302159195,2291201417,2253250806,2164724955,833,1,16,64371
1371081307,5804,28.7600002288818360,26.0356006622314450,35.3319015502929700,236.4958038330078000,-27.7415199279785160,26.0451602935791000,27.4398803710937500,57,120,92,85,53,14645,2351211337,2350093165,2350888886,2203202733,2343849536,2330169124,2281788205,2170581001,782,2,16,64660
1371081445,5811,25.7299995422363280,26.1203002929687500,35.3288993835449200,234.0330047607422000,-30.4788303375244140,26.1310997009277340,27.5174999237060550,57,121,90,84,59,14641,2377362614,2378039021,2381937453,2221865325,2381380352,2362325760,2303205174,2176726418,1421,2,17,62842
